SCP
-0 -0 0 0 -0 -0 -0 -0 -0 0 0 0 0 0 0 0 0 0 0 0 0 0 0 0 0 0 0 0 0 0 -0 0 0 0 0 0 0 1 0 1 0 0 2 2
-0 0 -0 -0 -0 -0 -0 -0 -0 -0 0 -0 -0 -0 0 0 0 0 0 0 0 0 0 0 0 0 0 0 -0 -0 0 0 0 0 0 0 0 0 0 0 1 2 2 2
0 0 -0 -0 -0 0 0 0 -0 -0 -0 0 0 0 0 0 0 0 0 0 0 0 0 0 0 0 0 -0 0 0 0 0 0 0 0 0 1 0 1 2 4 4 4 2
0 -0 -0 -0 0 0 0 0 0 0 0 0 0 0 0 0 0 0 0 0 0 0 0 0 0 0 -0 0 0 0 0 0 0 0 0 0 2 1 2 4 5 6 6 4
0 0 -0 -0 0 0 0 0 0 0 0 0 0 0 0 0 0 0 0 0 0 0 0 0 -0 -0 -0 0 0 0 0 0 0 0 -0 0 3 2 3 4 6 6 5 4
0 0 0 0 0 0 0 0 0 0 0 0 0 -0 0 0 0 0 0 0 0 0 0 -0 -0 -0 -0 -0 0 0 0 0 0 0 -0 0 3 3 3 3 5 7 5 4
0 0 0 0 0 0 0 0 0 0 0 0 0 -0 0 0 0 0 0 0 0 -0 -0 -0 -0 0 -0 0 -0 -0 0 0 0 -0 0 2 2 2 3 5 6 6 5 4
0 0 0 0 0 0 0 0 0 0 0 -0 -0 0 0 0 0 0 0 0 -0 -0 -0 -0 0 0 -0 -0 0 0 0 0 0 -0 1 2 3 4 5 5 4 3 2 2
0 0 -0 0 0 0 0 0 0 0 0 0 -0 0 0 0 0 -0 -0 -0 -0 -0 -0 0 0 -0 -0 -0 -0 0 0 0 0 1 2 2 3 2 3 3 2 2 2 0
0 0 0 0 0 0 0 0 0 0 0 -0 -0 -0 -0 -0 -0 -0 -0 -0 -0 -0 0 -0 -0 -0 -0 -0 0 0 0 0 0 1 1 1 1 1 1 2 2 3 1 0
0 0 0 0 0 0 0 0 0 -0 -0 -0 -0 -0 0 0 0 0 0 0 -0 0 -0 -0 -0 -0 -0 0 0 0 0 0 0 0 0 0 0 0 1 1 1 1 1 1
0 0 0 0 0 0 0 -0 -0 -0 -0 0 -0 -0 0 0 -0 0 0 0 0 -0 0 0 0 0 0 0 0 0 0 0 0 0 0 0 0 0 0 0 0 0 0 0
0 0 0 0 0 0 0 0 0 0 -0 0 0 0 -0 -0 0 0 0 -0 0 0 0 0 0 0 0 0 0 0 0 0 0 0 0 0 0 0 0 0 0 0 0 0
0 0 0 0 0 0 0 0 0 -0 -0 0 0 0 -0 0 0 0 0 0 0 0 0 0 0 0 0 0 -0 0 0 0 0 0 0 0 0 0 0 0 0 0 0 0
0 0 0 0 -0 0 0 0 -0 -0 0 0 -0 -0 0 0 0 0 0 0 0 0 0 0 0 0 0 0 0 0 0 0 0 0 0 0 0 0 0 0 0 0 0 0
0 0 -0 0 -0 -0 -0 0 0 -0 -0 -0 -0 -0 0 0 0 0 0 0 0 0 0 0 -0 0 0 0 0 0 0 0 0 0 0 0 0 0 0 0 0 0 0 0
0 -0 0 -0 -0 -0 0 -0 -0 -0 -0 -0 -0 0 0 0 0 0 0 0 0 0 0 -0 0 0 -0 0 0 0 0 0 0 0 0 0 0 0 0 0 0 0 0 0
0 -0 -0 0 0 0 -0 0 0 -0 -0 -0 0 0 0 0 0 0 -0 0 0 -0 -0 0 0 0 0 -0 0 0 0 0 0 0 0 0 0 0 0 0 0 0 0 0
0 -0 -0 0 -0 0 0 0 0 0 -0 0 0 0 0 0 -0 -0 0 0 0 0 0 0 0 0 0 0 0 0 0 0 0 0 0 0 0 0 0 0 0 0 0 0
0 0 -0 -0 -0 0 0 0 -0 0 -0 -0 0 0 0 -0 -0 0 0 0 0 0 0 0 0 0 0 0 0 0 0 0 0 0 0 0 0 0 0 0 0 0 0 0
-0 0 0 0 0 0 -0 -0 -0 -0 -0 -0 -0 0 0 0 0 0 0 0 0 0 0 0 0 0 0 0 0 0 0 0 0 0 0 0 0 0 0 0 0 0 0 0
-0 -0 0 0 0 0 0 0 -0 0 -0 -0 0 0 0 0 0 0 0 0 0 0 0 0 0 0 0 0 0 0 0 0 0 0 0 0 0 0 0 0 0 0 0 0
-0 -0 -0 0 0 0 0 0 0 0 -0 -0 0 0 -0 0 0 0 0 0 0 0 0 0 0 0 0 0 0 0 0 0 0 0 0 0 0 0 0 0 0 0 0 0
-0 -0 -0 0 0 0 0 0 -0 -0 -0 -0 -0 -0 0 0 0 0 0 0 0 0 0 0 0 0 0 0 0 0 0 0 0 0 0 0 0 0 0 0 0 0 0 0
-0 -0 -0 -0 -0 0 0 0 0 -0 -0 -0 -0 -0 -0 0 0 0 0 0 0 0 0 0 0 0 0 0 0 0 0 0 0 0 0 0 0 0 0 0 0 0 0 0
0 0 -0 -0 -0 -0 0 0 0 -0 -0 0 0 0 0 0 0 0 0 0 0 0 0 0 0 0 0 0 0 0 0 0 0 0 0 0 0 0 0 0 0 0 0 0
0 0 0 0 -0 -0 -0 0 0 0 0 0 0 0 0 0 0 0 0 0 0 0 0 0 0 0 0 0 0 0 0 0 0 0 0 0 0 0 0 0 0 0 0 0
Wind_Speed_500mb
43 44 41 45 42 43 45 43 45 47 50 47 47 45 43 43 37 35 38 41 43 43 42 43 47 51 53 58 62 60 59 60 62 58 61 62 63 63 62 60 63 65 65 61
46 42 43 46 45 51 52 52 54 54 59 50 61 54 35 31 38 41 44 48 51 50 50 49 53 58 61 62 68 56 62 65 60 55 58 60 57 60 61 61 65 65 65 61
28 31 25 29 42 42 49 50 44 48 49 35 32 26 27 33 38 46 55 63 58 57 56 55 60 63 68 74 67 59 63 60 58 57 55 58 46 60 64 69 71 74 68 59
18 25 22 27 13 19 27 28 26 32 37 34 30 27 31 40 50 58 58 57 57 58 61 66 67 70 73 76 72 64 61 59 56 52 55 54 42 63 69 72 77 74 69 61
9 19 32 41 18 10 18 29 30 30 26 21 29 41 50 54 48 51 51 59 65 67 68 70 71 74 79 74 74 62 61 56 52 44 60 59 45 67 72 69 69 64 61 60
9 11 9 6 8 8 13 24 17 12 22 33 51 37 34 62 66 61 64 68 70 70 72 72 73 74 68 79 62 59 53 53 47 54 63 51 57 70 73 70 71 65 58 57
22 14 18 10 5 7 12 12 37 47 52 56 34 40 66 67 74 69 70 71 70 69 76 75 74 68 68 64 73 63 52 50 42 66 66 46 70 67 70 69 68 66 65 64
11 12 10 8 11 17 35 53 56 56 53 56 63 69 72 72 68 69 71 70 70 76 71 74 64 62 65 63 62 55 53 53 67 86 47 58 66 65 71 72 73 72 72 66
9 11 35 46 35 51 50 49 54 56 63 68 74 74 74 75 76 76 76 72 68 68 73 63 56 57 58 59 51 51 51 52 55 32 29 48 53 57 59 67 73 70 74 77
21 10 27 46 52 40 46 51 54 57 66 72 80 78 85 82 74 76 75 70 60 64 58 61 51 49 50 47 48 54 50 42 25 4 10 26 47 52 60 63 72 81 80 79
27 26 45 29 35 42 53 48 60 63 72 79 85 85 81 70 68 62 61 60 53 61 56 57 55 47 40 41 40 41 39 33 18 19 15 36 46 53 62 69 78 88 81 69
9 54 42 50 63 59 52 59 69 74 79 84 55 59 65 60 58 54 54 54 50 50 53 53 47 43 39 38 31 39 30 23 24 25 41 51 60 61 62 69 74 65 58 53
18 52 71 69 50 55 60 74 78 73 77 68 56 51 52 56 52 53 52 50 47 46 45 43 44 44 38 33 31 33 22 14 35 48 60 70 75 77 77 67 65 63 60 56
46 46 52 46 62 71 74 77 69 71 63 51 56 50 50 54 52 48 51 46 42 44 41 39 39 41 34 31 37 35 26 21 60 68 64 62 56 70 63 58 65 60 50 44
50 57 60 58 70 70 74 68 68 61 55 54 43 46 44 48 52 49 47 43 41 41 37 34 37 42 37 36 32 35 35 36 63 64 62 61 54 52 51 51 50 59 53 49
58 56 54 59 66 73 65 68 59 57 51 45 43 43 44 46 48 47 41 40 35 32 25 23 32 32 23 34 38 47 40 45 47 65 63 54 50 55 54 49 52 48 54 59
53 59 63 66 73 73 63 60 54 49 49 44 45 43 40 41 40 44 38 25 25 17 14 24 36 57 69 75 58 45 59 50 54 54 52 55 58 55 48 50 48 44 56 56
45 48 55 60 67 70 69 60 54 50 48 45 44 40 38 40 42 41 32 22 10 14 18 42 17 40 55 66 66 65 61 64 56 56 50 54 48 49 50 49 46 53 62 55
47 48 56 60 60 72 60 54 56 49 45 48 43 40 39 36 35 33 23 18 19 15 11 22 44 52 59 57 59 56 57 56 57 51 47 51 48 46 48 47 48 64 59 50
43 46 54 58 57 71 64 63 59 56 53 50 47 46 46 40 32 28 17 12 17 19 18 40 49 48 55 59 57 58 54 49 51 48 48 45 50 53 53 51 59 62 54 48
41 44 50 54 59 70 71 67 64 64 60 58 56 49 47 44 35 30 29 20 21 23 30 36 55 52 46 57 52 49 49 49 47 47 53 54 55 54 55 60 69 67 61 51
39 43 49 52 58 64 74 72 69 70 65 62 61 58 57 51 43 30 35 31 24 28 27 34 51 54 44 45 49 45 45 42 51 51 50 51 56 61 65 68 72 64 61 49
34 38 44 50 56 58 68 76 75 75 77 73 69 69 69 57 50 44 40 30 23 28 28 40 48 55 48 41 42 42 42 53 51 51 55 61 64 67 68 75 65 62 53 55
38 35 38 44 50 55 63 68 80 84 87 85 72 62 65 60 57 44 30 22 23 32 31 35 34 36 40 46 45 44 49 50 51 56 58 61 62 61 66 66 62 55 54 54
31 33 34 41 48 54 58 59 72 81 84 85 82 67 56 51 54 47 42 29 28 32 33 28 21 25 40 42 42 44 43 47 50 50 50 54 60 61 60 56 52 55 56 51
34 35 32 32 35 42 47 53 56 67 73 74 78 73 62 56 49 52 49 39 33 34 37 34 32 33 38 43 45 46 46 47 49 51 53 60 62 61 57 60 61 59 54 51
40 38 35 33 35 36 44 44 45 51 63 63 63 69 67 60 53 46 48 47 42 36 43 38 38 39 42 45 46 46 47 51 50 55 57 62 63 63 64 64 63 57 54 56
Wind_Direction_500mb
275 277 276 276 266 260 252 246 250 265 270 274 279 285 292 296 289 285 285 284 289 294 289 279 286 294 296 300 302 295 287 282 276 278 282 279 266 252 235 228 220 211 199 194
267 269 268 272 274 258 258 262 263 264 267 274 278 276 274 284 276 279 286 284 289 286 284 285 289 296 298 296 299 287 287 281 275 279 279 276 256 242 224 217 207 195 193 189
265 266 288 262 256 256 253 253 253 258 266 286 292 268 287 288 294 291 291 290 286 284 282 285 291 294 296 299 292 289 287 279 274 277 277 266 247 231 216 205 195 192 189 186
270 288 261 260 302 285 285 287 274 269 274 277 279 307 294 286 287 292 292 289 288 288 287 288 291 292 295 296 291 289 279 276 276 279 278 263 249 217 207 198 193 189 188 184
246 228 269 293 308 286 304 293 299 292 306 329 305 296 283 280 305 301 294 293 289 287 290 290 292 291 293 291 287 281 276 276 276 278 255 275 233 207 199 191 185 184 180 175
217 257 269 40 20 350 310 277 44 359 308 305 306 295 298 300 301 294 292 292 288 287 287 288 290 293 291 291 284 275 277 281 273 277 247 262 207 197 192 187 181 175 172 173
237 260 277 34 44 308 272 337 321 311 305 304 301 286 294 296 295 289 289 287 289 287 288 289 292 289 286 281 282 279 285 289 276 258 252 234 196 188 182 172 167 166 169 176
223 238 265 66 311 292 316 312 310 305 304 297 294 295 294 295 293 290 289 290 289 288 289 290 286 284 279 275 278 281 280 272 265 252 216 180 172 165 167 172 168 170 177 168
263 284 313 315 335 327 317 289 299 306 302 302 299 297 296 294 293 293 290 289 290 291 289 285 283 281 276 277 278 277 276 278 300 352 136 163 173 172 173 173 175 170 167 166
304 261 329 327 315 295 294 303 306 308 307 303 298 297 296 296 300 297 294 292 286 286 280 283 280 278 274 275 277 282 288 302 297 292 168 172 178 178 178 179 169 166 167 164
284 293 327 300 310 307 308 310 314 307 306 309 303 294 287 286 288 286 287 286 281 281 281 280 282 279 272 271 279 284 291 305 294 198 205 180 179 182 185 183 182 168 163 166
287 298 288 280 291 303 310 312 314 318 312 308 296 295 293 286 286 286 285 284 281 279 280 282 279 275 269 272 275 274 283 278 198 193 178 171 165 156 156 159 158 158 159 164
278 284 284 289 313 314 318 315 314 312 309 304 298 293 289 286 287 287 285 283 280 278 278 278 277 271 265 265 264 262 262 260 192 176 166 154 150 149 147 152 159 159 160 168
310 323 320 324 317 318 315 315 315 313 314 304 303 295 290 291 292 287 284 286 287 284 284 282 277 272 269 267 263 247 235 189 161 161 140 152 150 147 149 149 149 148 154 159
324 325 317 317 320 317 318 323 324 322 321 315 307 298 298 295 294 293 295 297 292 292 286 277 272 269 262 259 229 231 190 160 160 147 145 143 146 146 149 147 144 149 150 151
320 329 330 326 322 320 332 330 332 326 324 317 311 307 305 302 300 301 303 301 293 291 296 298 283 274 248 194 169 175 188 169 140 143 142 144 145 145 145 144 143 145 150 151
337 340 340 340 334 334 333 340 334 331 328 324 317 319 316 310 310 316 318 311 309 304 307 280 257 244 243 224 204 179 175 175 164 152 149 150 153 149 148 148 150 151 153 152
338 343 344 340 336 337 335 338 342 340 336 336 335 333 328 330 334 329 328 334 332 284 274 277 283 116 133 149 164 163 162 158 158 155 151 147 149 152 152 150 150 152 154 148
345 351 349 348 348 346 346 348 353 349 353 352 349 347 345 348 343 337 337 328 301 302 305 98 112 125 138 141 147 150 152 152 150 149 149 155 148 150 151 149 150 153 152 147
355 355 355 354 354 357 355 4 1 5 9 9 10 5 359 5 2 358 352 331 338 14 61 97 112 130 136 142 140 144 143 140 140 144 145 147 150 153 151 150 153 155 153 156
356 355 1 2 358 2 10 11 6 13 14 19 16 14 11 11 15 13 28 37 46 62 81 110 121 120 131 135 134 135 137 138 139 144 153 155 160 161 163 161 161 159 165 170
353 358 360 5 4 3 15 21 18 19 19 20 24 25 24 22 24 30 28 29 47 81 90 115 133 125 137 129 131 135 132 141 146 150 154 156 157 157 160 163 160 164 168 164
353 358 2 5 5 9 16 25 26 26 26 25 24 23 29 29 22 18 25 43 73 97 97 125 131 135 130 122 133 136 149 149 146 146 149 153 156 157 159 159 161 164 162 162
355 0 4 2 3 10 13 14 28 32 31 29 26 28 28 28 34 32 27 37 72 101 104 133 140 145 151 145 150 149 152 152 152 153 154 155 155 155 156 159 162 163 163 163
7 7 12 5 5 6 6 8 14 24 28 27 28 31 32 32 36 34 41 54 79 98 111 122 134 149 159 153 151 151 153 156 156 153 152 157 157 159 161 161 163 161 158 157
14 14 10 8 7 2 3 7 9 13 20 24 23 25 33 35 39 42 48 56 77 97 111 119 133 145 149 150 152 157 157 159 158 157 157 160 163 163 164 160 158 157 159 162
22 22 20 14 13 12 359 5 9 8 17 21 20 19 29 32 39 47 50 57 70 79 92 108 123 132 139 143 149 154 160 160 163 160 159 160 162 161 159 158 157 158 159 156
Wind_Speed_850mb
43 44 41 45 42 43 45 43 45 47 50 47 47 45 43 43 37 35 38 41 43 43 42 43 47 51 53 58 62 60 59 60 62 58 61 62 63 63 62 60 63 65 65 61
46 42 43 46 45 51 52 52 54 54 59 50 61 54 35 31 38 41 44 48 51 50 50 49 53 58 61 62 68 56 62 65 60 55 58 60 57 60 61 61 65 65 65 61
28 31 25 29 42 42 49 50 44 48 49 35 32 26 27 33 38 46 55 63 58 57 56 55 60 63 68 74 67 59 63 60 58 57 55 58 46 60 64 69 71 74 68 59
18 25 22 27 13 19 27 28 26 32 37 34 30 27 31 40 50 58 58 57 57 58 61 66 67 70 73 76 72 64 61 59 56 52 55 54 42 63 69 72 77 74 69 61
9 19 32 41 18 10 18 29 30 30 26 21 29 41 50 54 48 51 51 59 65 67 68 70 71 74 79 74 74 62 61 56 52 44 60 59 45 67 72 69 69 64 61 60
9 11 9 6 8 8 13 24 17 12 22 33 51 37 34 62 66 61 64 68 70 70 72 72 73 74 68 79 62 59 53 53 47 54 63 51 57 70 73 70 71 65 58 57
22 14 18 10 5 7 12 12 37 47 52 56 34 40 66 67 74 69 70 71 70 69 76 75 74 68 68 64 73 63 52 50 42 66 66 46 70 67 70 69 68 66 65 64
11 12 10 8 11 17 35 53 56 56 53 56 63 69 72 72 68 69 71 70 70 76 71 74 64 62 65 63 62 55 53 53 67 86 47 58 66 65 71 72 73 72 72 66
9 11 35 46 35 51 50 49 54 56 63 68 74 74 74 75 76 76 76 72 68 68 73 63 56 57 58 59 51 51 51 52 55 32 29 48 53 57 59 67 73 70 74 77
21 10 27 46 52 40 46 51 54 57 66 72 80 78 85 82 74 76 75 70 60 64 58 61 51 49 50 47 48 54 50 42 25 4 10 26 47 52 60 63 72 81 80 79
27 26 45 29 35 42 53 48 60 63 72 79 85 85 81 70 68 62 61 60 53 61 56 57 55 47 40 41 40 41 39 33 18 19 15 36 46 53 62 69 78 88 81 69
9 54 42 50 63 59 52 59 69 74 79 84 55 59 65 60 58 54 54 54 50 50 53 53 47 43 39 38 31 39 30 23 24 25 41 51 60 61 62 69 74 65 58 53
18 52 71 69 50 55 60 74 78 73 77 68 56 51 52 56 52 53 52 50 47 46 45 43 44 44 38 33 31 33 22 14 35 48 60 70 75 77 77 67 65 63 60 56
46 46 52 46 62 71 74 77 69 71 63 51 56 50 50 54 52 48 51 46 42 44 41 39 39 41 34 31 37 35 26 21 60 68 64 62 56 70 63 58 65 60 50 44
50 57 60 58 70 70 74 68 68 61 55 54 43 46 44 48 52 49 47 43 41 41 37 34 37 42 37 36 32 35 35 36 63 64 62 61 54 52 51 51 50 59 53 49
58 56 54 59 66 73 65 68 59 57 51 45 43 43 44 46 48 47 41 40 35 32 25 23 32 32 23 34 38 47 40 45 47 65 63 54 50 55 54 49 52 48 54 59
53 59 63 66 73 73 63 60 54 49 49 44 45 43 40 41 40 44 38 25 25 17 14 24 36 57 69 75 58 45 59 50 54 54 52 55 58 55 48 50 48 44 56 56
45 48 55 60 67 70 69 60 54 50 48 45 44 40 38 40 42 41 32 22 10 14 18 42 17 40 55 66 66 65 61 64 56 56 50 54 48 49 50 49 46 53 62 55
47 48 56 60 60 72 60 54 56 49 45 48 43 40 39 36 35 33 23 18 19 15 11 22 44 52 59 57 59 56 57 56 57 51 47 51 48 46 48 47 48 64 59 50
43 46 54 58 57 71 64 63 59 56 53 50 47 46 46 40 32 28 17 12 17 19 18 40 49 48 55 59 57 58 54 49 51 48 48 45 50 53 53 51 59 62 54 48
41 44 50 54 59 70 71 67 64 64 60 58 56 49 47 44 35 30 29 20 21 23 30 36 55 52 46 57 52 49 49 49 47 47 53 54 55 54 55 60 69 67 61 51
39 43 49 52 58 64 74 72 69 70 65 62 61 58 57 51 43 30 35 31 24 28 27 34 51 54 44 45 49 45 45 42 51 51 50 51 56 61 65 68 72 64 61 49
34 38 44 50 56 58 68 76 75 75 77 73 69 69 69 57 50 44 40 30 23 28 28 40 48 55 48 41 42 42 42 53 51 51 55 61 64 67 68 75 65 62 53 55
38 35 38 44 50 55 63 68 80 84 87 85 72 62 65 60 57 44 30 22 23 32 31 35 34 36 40 46 45 44 49 50 51 56 58 61 62 61 66 66 62 55 54 54
31 33 34 41 48 54 58 59 72 81 84 85 82 67 56 51 54 47 42 29 28 32 33 28 21 25 40 42 42 44 43 47 50 50 50 54 60 61 60 56 52 55 56 51
34 35 32 32 35 42 47 53 56 67 73 74 78 73 62 56 49 52 49 39 33 34 37 34 32 33 38 43 45 46 46 47 49 51 53 60 62 61 57 60 61 59 54 51
40 38 35 33 35 36 44 44 45 51 63 63 63 69 67 60 53 46 48 47 42 36 43 38 38 39 42 45 46 46 47 51 50 55 57 62 63 63 64 64 63 57 54 56
Wind_Direction_850mb
275 277 276 276 266 260 252 246 250 265 270 274 279 285 292 296 289 285 285 284 289 294 289 279 286 294 296 300 302 295 287 282 276 278 282 279 266 252 235 228 220 211 199 194
267 269 268 272 274 258 258 262 263 264 267 274 278 276 274 284 276 279 286 284 289 286 284 285 289 296 298 296 299 287 287 281 275 279 279 276 256 242 224 217 207 195 193 189
265 266 288 262 256 256 253 253 253 258 266 286 292 268 287 288 294 291 291 290 286 284 282 285 291 294 296 299 292 289 287 279 274 277 277 266 247 231 216 205 195 192 189 186
270 288 261 260 302 285 285 287 274 269 274 277 279 307 294 286 287 292 292 289 288 288 287 288 291 292 295 296 291 289 279 276 276 279 278 263 249 217 207 198 193 189 188 184
246 228 269 293 308 286 304 293 299 292 306 329 305 296 283 280 305 301 294 293 289 287 290 290 292 291 293 291 287 281 276 276 276 278 255 275 233 207 199 191 185 184 180 175
217 257 269 40 20 350 310 277 44 359 308 305 306 295 298 300 301 294 292 292 288 287 287 288 290 293 291 291 284 275 277 281 273 277 247 262 207 197 192 187 181 175 172 173
237 260 277 34 44 308 272 337 321 311 305 304 301 286 294 296 295 289 289 287 289 287 288 289 292 289 286 281 282 279 285 289 276 258 252 234 196 188 182 172 167 166 169 176
223 238 265 66 311 292 316 312 310 305 304 297 294 295 294 295 293 290 289 290 289 288 289 290 286 284 279 275 278 281 280 272 265 252 216 180 172 165 167 172 168 170 177 168
263 284 313 315 335 327 317 289 299 306 302 302 299 297 296 294 293 293 290 289 290 291 289 285 283 281 276 277 278 277 276 278 300 352 136 163 173 172 173 173 175 170 167 166
304 261 329 327 315 295 294 303 306 308 307 303 298 297 296 296 300 297 294 292 286 286 280 283 280 278 274 275 277 282 288 302 297 292 168 172 178 178 178 179 169 166 167 164
284 293 327 300 310 307 308 310 314 307 306 309 303 294 287 286 288 286 287 286 281 281 281 280 282 279 272 271 279 284 291 305 294 198 205 180 179 182 185 183 182 168 163 166
287 298 288 280 291 303 310 312 314 318 312 308 296 295 293 286 286 286 285 284 281 279 280 282 279 275 269 272 275 274 283 278 198 193 178 171 165 156 156 159 158 158 159 164
278 284 284 289 313 314 318 315 314 312 309 304 298 293 289 286 287 287 285 283 280 278 278 278 277 271 265 265 264 262 262 260 192 176 166 154 150 149 147 152 159 159 160 168
310 323 320 324 317 318 315 315 315 313 314 304 303 295 290 291 292 287 284 286 287 284 284 282 277 272 269 267 263 247 235 189 161 161 140 152 150 147 149 149 149 148 154 159
324 325 317 317 320 317 318 323 324 322 321 315 307 298 298 295 294 293 295 297 292 292 286 277 272 269 262 259 229 231 190 160 160 147 145 143 146 146 149 147 144 149 150 151
320 329 330 326 322 320 332 330 332 326 324 317 311 307 305 302 300 301 303 301 293 291 296 298 283 274 248 194 169 175 188 169 140 143 142 144 145 145 145 144 143 145 150 151
337 340 340 340 334 334 333 340 334 331 328 324 317 319 316 310 310 316 318 311 309 304 307 280 257 244 243 224 204 179 175 175 164 152 149 150 153 149 148 148 150 151 153 152
338 343 344 340 336 337 335 338 342 340 336 336 335 333 328 330 334 329 328 334 332 284 274 277 283 116 133 149 164 163 162 158 158 155 151 147 149 152 152 150 150 152 154 148
345 351 349 348 348 346 346 348 353 349 353 352 349 347 345 348 343 337 337 328 301 302 305 98 112 125 138 141 147 150 152 152 150 149 149 155 148 150 151 149 150 153 152 147
355 355 355 354 354 357 355 4 1 5 9 9 10 5 359 5 2 358 352 331 338 14 61 97 112 130 136 142 140 144 143 140 140 144 145 147 150 153 151 150 153 155 153 156
356 355 1 2 358 2 10 11 6 13 14 19 16 14 11 11 15 13 28 37 46 62 81 110 121 120 131 135 134 135 137 138 139 144 153 155 160 161 163 161 161 159 165 170
353 358 360 5 4 3 15 21 18 19 19 20 24 25 24 22 24 30 28 29 47 81 90 115 133 125 137 129 131 135 132 141 146 150 154 156 157 157 160 163 160 164 168 164
353 358 2 5 5 9 16 25 26 26 26 25 24 23 29 29 22 18 25 43 73 97 97 125 131 135 130 122 133 136 149 149 146 146 149 153 156 157 159 159 161 164 162 162
355 0 4 2 3 10 13 14 28 32 31 29 26 28 28 28 34 32 27 37 72 101 104 133 140 145 151 145 150 149 152 152 152 153 154 155 155 155 156 159 162 163 163 163
7 7 12 5 5 6 6 8 14 24 28 27 28 31 32 32 36 34 41 54 79 98 111 122 134 149 159 153 151 151 153 156 156 153 152 157 157 159 161 161 163 161 158 157
14 14 10 8 7 2 3 7 9 13 20 24 23 25 33 35 39 42 48 56 77 97 111 119 133 145 149 150 152 157 157 159 158 157 157 160 163 163 164 160 158 157 159 162
22 22 20 14 13 12 359 5 9 8 17 21 20 19 29 32 39 47 50 57 70 79 92 108 123 132 139 143 149 154 160 160 163 160 159 160 162 161 159 158 157 158 159 156